Date,TemperatureHighF,TemperatureAvgF,TemperatureLowF,DewpointHighF,DewpointAvgF,DewpointLowF,HumidityHigh,HumidityAvg,HumidityLow,PressureMaxIn,PressureMinIn,WindSpeedMaxMPH,WindSpeedAvgMPH,GustSpeedMaxMPH,PrecipitationSumIn
2013-1-1,46.0,39.4,34.0,36.0,32.8,29.0,95,78,64,30.42,30.24,6,1,17,0.02
2013-1-2,49.0,41.7,38.0,34.0,30.2,28.0,71,63,54,30.25,30.11,7,3,21,0.00
2013-1-3,51.0,43.0,37.0,49.0,35.3,27.0,94,75,60,30.26,30.07,10,5,23,0.14
2013-1-4,54.0,47.3,42.0,51.0,45.2,40.0,95,92,86,30.34,30.15,8,2,14,0.16
2013-1-5,46.0,42.8,41.0,42.0,39.6,37.0,95,88,80,30.20,30.13,6,3,23,0.43
2013-1-6,50.0,44.0,38.0,47.0,42.0,37.0,96,93,85,30.24,30.09,9,4,21,0.37
2013-1-7,52.0,50.4,47.0,51.0,49.1,45.0,96,95,94,30.25,30.05,13,4,28,1.14
2013-1-8,52.0,51.0,48.0,51.0,50.0,47.0,96,95,94,30.24,29.95,16,9,31,0.32
2013-1-9,51.0,44.6,38.0,49.0,41.9,36.0,96,91,83,30.02,29.77,23,9,37,0.76
2013-1-10,44.0,40.3,37.0,42.0,38.5,36.0,97,93,82,30.17,30.02,27,6,37,0.64
2013-1-11,47.0,38.7,33.0,40.0,34.7,31.0,96,86,62,30.32,30.16,21,2,31,0.05
2013-1-12,45.0,35.6,31.0,37.0,31.8,29.0,92,86,72,30.42,30.32,6,0,12,0.01
2013-1-13,42.0,33.1,29.0,34.0,29.5,27.0,93,87,71,30.50,30.42,2,0,9,0.00
2013-1-14,39.0,34.5,30.0,37.0,32.5,28.0,96,92,89,30.57,30.49,1,0,8,0.05
2013-1-15,49.0,39.3,35.0,44.0,37.5,34.0,96,93,84,30.67,30.56,4,0,10,0.05
2013-1-16,48.0,37.9,33.0,40.0,34.6,32.0,96,88,73,30.64,30.43,7,2,16,0.01
2013-1-17,51.0,41.7,35.0,39.0,35.0,32.0,89,77,63,30.43,30.24,7,3,19,0.01
2013-1-18,53.0,42.9,36.0,39.0,35.3,32.0,88,75,60,30.26,30.22,6,2,14,0.00
2013-1-19,55.0,40.8,34.0,45.0,35.8,30.0,91,83,57,30.32,30.23,5,2,13,0.00
2013-1-20,51.0,38.8,31.0,42.0,33.7,29.0,93,82,61,30.33,30.20,7,1,11,0.00
2013-1-21,52.0,39.9,32.0,37.0,31.4,28.0,84,73,55,30.23,30.09,7,4,15,0.00
2013-1-22,51.0,40.9,34.0,35.0,31.0,28.0,77,68,54,30.11,29.92,7,3,16,0.00
2013-1-23,46.0,41.8,40.0,45.0,37.7,31.0,96,86,69,30.22,29.89,12,3,20,0.73
2013-1-24,48.0,41.5,35.0,45.0,39.9,34.0,97,94,90,30.23,30.09,9,3,16,0.23
2013-1-25,49.0,46.0,42.0,48.0,44.8,40.0,96,95,93,30.14,29.98,8,4,18,0.36
2013-1-26,46.0,42.5,39.0,43.0,40.8,38.0,96,94,88,30.14,29.97,13,3,22,0.71
2013-1-27,45.0,41.5,38.0,43.0,40.4,37.0,97,95,91,30.20,30.09,15,4,25,0.52
2013-1-28,46.0,45.0,43.0,44.0,42.8,41.0,95,93,85,30.32,30.15,16,11,27,0.53
2013-1-29,48.0,46.0,45.0,47.0,45.0,43.0,96,95,94,30.54,30.32,17,9,27,0.46
2013-1-30,49.0,47.7,45.0,48.0,46.7,44.0,96,96,95,30.54,30.50,9,4,19,1.28
2013-1-31,55.0,48.2,42.0,52.0,46.4,41.0,97,94,89,30.47,30.37,0,0,5,0.13